Domov               UVHVVR             MKGP            O straneh              
ZDRAVSTVENO VARSTVO RASTLIN
  MREŽA AGROMET. POSTAJ
 ► PROGNOSTIČNA OBVESTILA
AGROMETEOROLOŠKI PODATKI -
ARSO
OBVLADOVANJE TVEGANJ ZARADI
NEUGODNIH VREMENSKIH RAZMER
  ► NARAVNE NESREČE
  ► SUŠA/MOČA
  ► NAMAKANJE
  ► ŽLED (gozdarstvo)
KARTOGRAFSKI PRIKAZI
SPLETNE POVEZAVE
PROJEKTI IN PUBLIKACIJE

AGROMETEOROLOŠKA MREŽA: VREMENSKE POSTAJE IN FENOLOŠKA OPAZOVANJA

Pregled podatkov za lokacijo Gabrovka, meteorološka postaja 38756

Pregled senzorjev na lokaciji

ID Ime Zadnja
vrednost
Datum
zadnje
spremembe
Tip
senzorja
2042 Omočenost lista (U) 0 U 21.10.2017 00:00 A730WET
2045 Padavine 0.2 mm (mm) 0 mm 20.10.2017 23:59 Rain-O-Matic
2064 Temperatura 2 m ( °C) 10,65 °C 21.10.2017 00:00 50YA
2065 Relativna vlaga 2 m (% RH) 86,62 % RH 21.10.2017 00:00 50YA

Pregled podatkov zadnjih 24 ur

Zap.
št.
Datum in čas Gabrovka
Omočenost
lista
Padavine
0.2
mm
Relativna
vlaga
2
m
Temperatura
2
m
0 20.10.2017 23:00 0 0 86,62 10,65
1 20.10.2017 22:30 0 0 87,57 10,6
2 20.10.2017 22:00 0 0 86,81 10,82
3 20.10.2017 21:30 0 0 86,47 10,94
4 20.10.2017 21:00 0 0 86,13 10,94
5 20.10.2017 20:30 0 0 85,3 11,11
6 20.10.2017 20:00 0 0 84,54 11,33
7 20.10.2017 19:30 0 0 84,32 11,5
8 20.10.2017 19:00 0 0 84,15 11,55
9 20.10.2017 18:30 0 0 83,49 11,75
10 20.10.2017 18:00 0 0 81,1 12,09
11 20.10.2017 17:30 0 0 78,56 12,65
12 20.10.2017 17:00 0 0 76,87 13,36
13 20.10.2017 16:30 0 0 71,62 14,68
14 20.10.2017 16:00 0 0 68,96 15,56
15 20.10.2017 15:30 0 0 66,59 16,24
16 20.10.2017 15:00 0 0 60,51 17,63
17 20.10.2017 14:30 0 0 56,9 18,68
18 20.10.2017 14:00 0 0 54,48 19,37
19 20.10.2017 13:30 0 0 53,26 19,68
20 20.10.2017 13:00 0 0 51,04 19,66
21 20.10.2017 12:30 0 0 49,28 19,73
22 20.10.2017 12:00 0 0 50,92 19,19
23 20.10.2017 11:30 0 0 54,92 18,05
24 20.10.2017 11:00 0 0 56,02 17,48
25 20.10.2017 10:30 0 0 57,63 16,95
26 20.10.2017 10:00 0 0 56,51 16,61
27 20.10.2017 09:30 0 0 57,24 16,17
28 20.10.2017 09:00 0 0 60,59 14,97
29 20.10.2017 08:30 0 0 61,76 14,33
30 20.10.2017 08:00 0 0 64,25 13,5
31 20.10.2017 07:30 0 0 66,4 12,77
32 20.10.2017 07:00 0 0 68,74 12,19
33 20.10.2017 06:30 0 0 67,35 12,16
34 20.10.2017 06:00 0 0 66,96 12,21
35 20.10.2017 05:30 0 0 69,21 12,04
36 20.10.2017 05:00 0 0 71,06 11,77
37 20.10.2017 04:30 0 0 71,33 11,87
38 20.10.2017 04:00 0 0 73,87 11,6
39 20.10.2017 03:30 0 0 73,92 11,82
40 20.10.2017 03:00 0 0 77,26 11,58
41 20.10.2017 02:30 0 0 78,56 11,7
42 20.10.2017 02:00 0 0 79,1 11,89
43 20.10.2017 01:30 0 0 77,75 12,19
© 2011 Ministrstvo za kmetijstvo, gozdarstvo in prehrano. Vse pravice pridržane.